Beaufort, NC

6:29 AM EDT on October 14, 2019 (GMT -0400)
Smith

Weather History for KMRH - May, 2019

Change the Weather History Date:

Wednesday, May 8, 2019

  Actual Average Record
Temperature  
Mean Temperature 69 °F -  
Max Temperature 79 °F 74 °F 82 °F (1952)
Min Temperature 60 °F 57 °F 37 °F (1968)
Cooling Degree Days 4    
Growing Degree Days 19 (Base 50)    
Moisture  
Dew Point 62 °F    
Average Humidity 76    
Maximum Humidity 100    
Minimum Humidity 54    
Precipitation  
Precipitation 0.00 in - - ()
Sea Level Pressure  
Sea Level Pressure 30.16 in    
Wind  
Wind Speed 3 mph (SSE)    
Max Wind Speed 13 mph    
Max Gust Speed -    
Visibility 10 miles    
Events      
Averages and records for this station are not official NWS values.
T = Trace of Precipitation, MM = Missing Value Source: NWS Daily Summary

Daily Weather History Graph

Daily Weather History Graph

Search for Another Location

Airport or City:

Astronomy

May. 08, 2019 Rise Set
Actual Time 6:09 AM EDT 7:57 PM EDT
Civil Twilight 5:42 AM EDT 8:24 PM EDT
Nautical Twilight 5:09 AM EDT 8:57 PM EDT
Astronomical Twilight 4:34 AM EDT 9:33 PM EDT
Moon 9:08 AM EDT (5/8) 11:51 PM EDT (5/8)
Length of Visible Light 14h 42m
Length of Day
13h 47m
Waxing Crescent, 15% of the Moon is Illuminated
May 8
Waxing Crescent
May 11
First Quarter
May 18
Full
May 26
Last Quarter
Jun 3
New

Hourly Weather History & Observations

Time (EDT) Temp. Dew Point Humidity Pressure Visibility Wind Dir Wind Speed Gust Speed Precip Events Conditions
12:58 AM 68.0 °F 63.0 °F 84% 30.17 in 10.0 mi SSE 4.6 mph - N/A   Clear
1:58 AM 66.9 °F 63.0 °F 87% 30.16 in 10.0 mi Calm Calm - N/A   Clear
2:58 AM 63.0 °F 60.1 °F 90% 30.14 in 10.0 mi Calm Calm - N/A   Clear
3:58 AM 62.1 °F 60.1 °F 93% 30.13 in 10.0 mi Calm Calm - N/A   Clear
4:58 AM 61.0 °F 61.0 °F 100% 30.13 in 10.0 mi Calm Calm - N/A   Clear
5:54 AM 60.8 °F 60.8 °F 100% 30.13 in 1.8 mi Calm Calm - N/A   Clear
5:58 AM 61.0 °F 60.1 °F 97% 30.14 in 2.0 mi Calm Calm - N/A   Clear
6:07 AM 62.1 °F 60.1 °F 93% 30.14 in 10.0 mi Calm Calm - N/A   Clear
6:58 AM 63.0 °F 61.0 °F 93% 30.16 in 10.0 mi Calm Calm - N/A   Clear
7:58 AM 71.1 °F 66.0 °F 84% 30.17 in 10.0 mi NNE 3.5 mph - N/A   Clear
8:58 AM 73.0 °F 64.9 °F 76% 30.18 in 10.0 mi NW 4.6 mph - N/A   Clear
9:58 AM 75.9 °F 64.0 °F 67% 30.18 in 10.0 mi NW 4.6 mph - N/A   Clear
10:34 AM 73.9 °F 64.0 °F 71% 30.18 in 10.0 mi WSW 4.6 mph - N/A   Mostly Cloudy
10:55 AM 75.2 °F 62.6 °F 65% 30.19 in 10.0 mi Calm Calm - N/A   Scattered Clouds
10:58 AM 75.0 °F 63.0 °F 66% 30.19 in 10.0 mi SSW 4.6 mph - N/A   Scattered Clouds
11:19 AM 75.9 °F 62.1 °F 62% 30.18 in 10.0 mi SE 6.9 mph - N/A   Mostly Cloudy
11:26 AM 77.0 °F 62.1 °F 60% 30.18 in 10.0 mi East 4.6 mph - N/A   Scattered Clouds
11:58 AM 78.1 °F 60.1 °F 54% 30.18 in 10.0 mi SSE 8.1 mph - N/A   Partly Cloudy
12:58 PM 78.1 °F 61.0 °F 56% 30.17 in 10.0 mi South 10.4 mph - N/A   Clear
1:58 PM 78.1 °F 63.0 °F 60% 30.16 in 10.0 mi SE 10.4 mph - N/A   Mostly Cloudy
2:58 PM 77.0 °F 62.1 °F 60% 30.14 in 10.0 mi South 10.4 mph - N/A   Overcast
3:58 PM 78.1 °F 64.9 °F 64% 30.13 in 10.0 mi SSE 12.7 mph - N/A   Partly Cloudy
4:58 PM 75.9 °F 63.0 °F 64% 30.12 in 10.0 mi ESE 10.4 mph - N/A   Scattered Clouds
5:58 PM 75.0 °F 61.0 °F 62% 30.12 in 10.0 mi South 10.4 mph - N/A   Partly Cloudy
6:58 PM 73.9 °F 61.0 °F 64% 30.12 in 10.0 mi SSE 5.8 mph - N/A   Clear
7:58 PM 72.0 °F 61.0 °F 68% 30.14 in 10.0 mi SSE 3.5 mph - N/A   Clear
8:58 PM 70.0 °F 62.1 °F 76% 30.14 in 10.0 mi Calm Calm - N/A   Clear
9:58 PM 66.9 °F 62.1 °F 84% 30.17 in 10.0 mi Calm Calm - N/A   Clear
10:58 PM 64.9 °F 61.0 °F 87% 30.17 in 10.0 mi Calm Calm - N/A   Clear
11:58 PM 64.9 °F 62.1 °F 90% 30.17 in 10.0 mi Calm Calm - N/A   Partly Cloudy